Find Starlink 4498

NORAD ID: 53434 Int'l Des: 2022-097 Owner: SPXS Country: US Constellation: starlink operational
LEOCIRCULAR

实时位置

正在加载3D地球...

关于 Starlink 4498

正在加载描述...

即将过境

Passes for default location (London). Set your location on the main map for personalized predictions.

高度历史

Loading altitude history...

两行轨道根数

1 53434U 22097AY 26107.33336806 .00952314 00000-0 20854-1 0 9991
2 53434 53.2162 286.0210 0001551 63.5224 299.0659 15.40892724 5831
Epoch: Apr 17, 2026 • Age: 10 hours

当前状态

高度 441.8 km
速度 7.65 km/s
星下点 20.23°N, 27.65°W
发射日期 Aug 10, 2022
运行时间 3.6 years
类型 internet

技术详情

分类 Payload
质量 297.00 kg
干质量 275.00 kg
总质量 297.00 kg
长度 0.20 m
直径 2.80 m
跨度 9.00 m
形状 Box + pan
制造商 SPXS
平台类型 Starlink
阶段状态 In Orbit
所有者/国家 SPXS/US

Most Searched